User: anonymous   Login
Location: Unspecified
(0.0000°N, 0.0000°E)
Time: 11:55:07
(UTC+01:00)
Language:

Ariane 42L R/B - Orbit

View from above orbital plane
View from above orbital plane
View from above satellite
View from above satellite

Ground track
Ground track

The orbit data is extracted from the following two-line orbital elements,

1 26299U 00020B   15029.59312166  .00007370  00000-0  15355-2 0  1664
2 26299 007.5245 325.2771 6062164 209.3707 019.2592 03.94677712183740
Epoch (UTC): 29 January 2015 14:14:05
Eccentricity: 0.6062164
inclination: 7.5245°
perigee height: 282 km
apogee height: 20789 km
right ascension of ascending node: 325.2771°
argument of perigee: 209.3707°
revolutions per day: 3.94677712
mean anomaly at epoch: 19.2592°
orbit number at epoch: 18374

The dashed part of the orbit path shows where the satellite is in the earth's shadow,  

DLR